ワイズ彗星

245P/WISE (2010)

English version
Home page
Updated on December 28, 2022

---------------------------------------------------------------------

・ プロフィール

符号 245P/2010 L1
発見日 2010年6月2日
発見光度
発見者 Wide Field Infrared Survey Explorer (NASA)

・ 写真集

・ 軌道要素

Epoch 2010 Feb. 13.0 TT = JDT 2455240.5
T 2010 Feb. 4.57272 TT                                  MPC
q   2.1395472            (2000.0)            P               Q
n   0.12285945     Peri.  316.42034     +0.11683921     +0.96413967
a   4.0074090      Node   318.52822     -0.78365286     -0.05789754
e   0.4661021      Incl.   21.08926     -0.61011212     +0.25900303
P   8.02

・ 光度変化

        m1 = 14.7 + 5 logΔ + 10.0 log r

---------------------------------------------------------------------

軌道要素はM.P.E.C. 2010-R23に掲載されたものです。
光度グラフはComet for Windowsで作成したものです。

---------------------------------------------------------------------

Copyright(C) Seiichi Yoshida (comet@aerith.net). All rights reserved.